Location: New Town
(33.2710°N, 90.7534°W)
Time: 00:59:34
(UTC+00:00)

Courier 1B - All Passes

Search period start: 12 May 2021 00:00
Search period end: 22 May 2021 00:00
Orbit: 962 x 1209 km, 28.3° (Epoch: 11 May)

Date Brightness Start Highest point End Pass type
(mag) Time Alt. Az. Time Alt. Az. Time Alt. Az.
12 May - 06:47:50 10° SSE 06:50:25 12° SSE 06:53:02 10° SE visible
12 May - 08:37:12 10° SW 08:43:48 34° SSE 08:50:39 10° E visible
12 May - 10:30:10 10° WSW 10:37:42 57° S 10:45:23 10° E visible
12 May - 12:24:12 10° W 12:31:53 59° S 12:39:31 10° ESE daylight
12 May - 14:18:47 10° W 14:25:52 37° SSW 14:32:44 10° SE daylight
12 May - 16:15:26 10° WSW 16:19:20 15° SSW 16:23:11 10° S daylight
13 May - 07:44:03 10° SSW 07:50:03 27° SSE 07:56:17 10° E visible
13 May - 09:36:28 10° WSW 09:43:47 52° SSE 09:51:21 10° E visible
13 May - 11:30:16 10° W 11:37:56 61° S 11:45:39 10° ESE daylight
13 May - 13:24:39 10° W 13:32:01 44° SSW 13:39:16 10° SE daylight
13 May - 15:20:17 10° WSW 15:25:39 20° SSW 15:30:53 10° SSE daylight
14 May - 06:51:13 10° SSW 06:56:22 21° SSE 07:01:41 10° ESE visible
14 May - 08:42:54 10° SW 08:49:55 45° SSE 08:57:15 10° E visible
14 May - 10:36:25 10° WSW 10:43:58 61° S 10:51:43 10° E visible
14 May - 12:30:37 10° W 12:38:07 51° SSW 12:45:37 10° ESE daylight
14 May - 14:25:40 10° W 14:31:54 26° SSW 14:38:02 10° SSE daylight
15 May - 05:58:55 10° S 06:02:43 15° SSE 06:06:38 10° ESE night (unlit)
15 May - 07:49:28 10° SW 07:56:07 38° SSE 08:03:05 10° E visible
15 May - 09:42:38 10° WSW 09:50:02 59° S 09:57:43 10° E visible
15 May - 11:36:40 10° W 11:44:12 56° S 11:51:51 10° ESE daylight
15 May - 13:31:19 10° W 13:38:07 33° SSW 13:44:52 10° SE daylight
15 May - 15:29:17 10° SW 15:31:35 11° SSW 15:33:54 10° SSW daylight
16 May - 06:56:15 10° SW 07:02:23 31° SSE 07:08:49 10° E visible
16 May - 08:48:57 10° WSW 08:56:08 55° S 09:03:41 10° E visible
16 May - 10:42:47 10° W 10:50:15 59° S 10:57:58 10° ESE daylight
16 May - 12:37:10 10° W 12:44:17 39° SSW 12:51:26 10° SE daylight
16 May - 14:33:21 10° WSW 14:37:53 16° SSW 14:42:23 10° S daylight
17 May - 06:03:15 10° SSW 06:08:42 24° SSE 06:14:24 10° ESE visible
17 May - 07:55:22 10° WSW 08:02:17 49° SSE 08:09:36 10° E visible
17 May - 09:48:58 10° W 09:56:20 61° S 10:04:01 10° ESE visible
17 May - 11:43:08 10° W 11:50:25 46° SSW 11:57:49 10° SE daylight
17 May - 13:38:28 10° WSW 13:44:08 22° SSW 13:49:47 10° SSE daylight
18 May - 05:10:37 10° SSW 05:15:05 18° SSE 05:19:42 10° ESE night (unlit)
18 May - 07:01:55 10° SW 07:08:30 42° SSE 07:15:29 10° E visible
18 May - 08:55:13 10° WSW 09:02:25 60° S 09:10:01 10° E visible
18 May - 10:49:13 10° W 10:56:31 51° SSW 11:04:03 10° ESE daylight
18 May - 12:44:01 10° W 12:50:22 28° SSW 12:56:45 10° SSE daylight
19 May - 04:18:41 10° S 04:21:31 13° SSE 04:24:24 10° ESE night (unlit)
19 May - 06:08:37 10° SW 06:14:47 35° SSE 06:21:19 10° E visible
19 May - 08:01:33 10° WSW 08:08:33 58° S 08:15:59 10° E visible
19 May - 09:55:23 10° W 10:02:37 56° S 10:10:12 10° ESE visible
19 May - 11:49:49 10° W 11:56:33 34° SSW 12:03:25 10° SE daylight
19 May - 13:47:00 10° SW 13:50:07 13° SSW 13:53:14 10° S daylight
20 May - 05:15:29 10° SSW 05:21:07 28° SSE 05:27:02 10° E night (unlit)
20 May - 07:07:58 10° WSW 07:14:44 53° S 07:21:56 10° E visible
20 May - 09:01:36 10° W 09:08:44 59° S 09:16:16 10° ESE visible
20 May - 10:55:47 10° W 11:02:43 40° SSW 11:09:52 10° SE daylight
20 May - 12:51:35 10° WSW 12:56:22 18° SSW 13:01:12 10° S daylight
21 May - 04:22:37 10° SSW 04:27:31 22° SSE 04:32:36 10° ESE night (unlit)
21 May - 06:14:29 10° WSW 06:20:58 47° SSE 06:27:52 10° E visible
21 May - 08:07:54 10° WSW 08:14:52 60° S 08:22:17 10° ESE visible
21 May - 10:01:53 10° W 10:08:52 46° SSW 10:16:11 10° SE visible
21 May - 11:56:56 10° WSW 12:02:37 23° SSW 12:08:24 10° SSE daylight
